Погода в Помарах

Россия / Республика Марий Эл     55°58′01″N   48°21′04″E
темп.,
°C
ветер,
м/с
пор.,
м/с
влажн.,
%
обл.,
%
осадки,
мм/ч
давл.,
гПа
погр.,
м
18 мая, вт
вт1800:00+16св3385100 2.6 101751
03:00+16в238942 2.6 101738
06:00+19в277724 0.0 1018256
09:00+24в345839 0.1 1017490
12:00+28в444610 0.0 10171219
15:00+28в55469 0.0 10171393
18:00+24всв486071 0.0 1017251
21:00+19всв397252 0.1 1017153
19 мая, ср
ср1900:00+17в4106834 0.0 1017211
03:00+15вюв39735 0.0 1018162
06:00+17вюв412735 0.0 1018403
09:00+22вюв69555 0.0 1018833
12:00+25вюв67445 0.0 10181336
15:00+25юв68461 0.0 10171449
18:00+23вюв410580 0.0 1016405
21:00+18вюв412730 0.0 1017268
20 мая, чт
чт2000:00+17вюв413775 0.0 1016286
03:00+15вюв4127754 0.0 1017265
06:00+18юв513703 0.0 1017468
09:00+22юв61055100 0.0 1016708
12:00+24юв794681 0.0 10161519
15:00+24юв7947100 0.0 10151705
18:00+21вюв511522 0.0 1013533
21:00+17юв514570 0.0 1013415
21 мая, пт
пт2100:00+14юв39681 0.0 1012182
03:00+13юв3876100 0.0 1012176
06:00+14ю41090100 0.9 1011368
09:00+18ю687787 1.9 10111018
12:00+21ююз685894 1.6 10121796
15:00+21юз796264 2.6 10131685
18:00+18юз6106777 0.3 1014793
21:00+14юз411851 0.3 1016304
22 мая, сб
сб2200:00+12юз399332 0.0 1017223
03:00+11юз3795100 0.0 1019179
06:00+13юз358387 0.0 1020303
09:00+16ююз3467100 0.0 1020695
12:00+13св1189100 1.2 1020102
15:00+16всв4580100 1.2 1019453
18:00+14с5794100 1.0 1017262
21:00+13ссв4897100 12.7 1018209